Location: Peterborough
(44.3091°N, 78.3197°W)
Time: 03:24:27
(UTC-04:00)

S-56A Canister/Altair - Pass Details

Date: 23 March 2023
Orbit: 639 x 2492 km, 38.9° (Epoch: 08 June)

Event Time Altitude Azimuth Distance (km) Brightness Sun altitude
Rises 01:38:12 0° 280° (W) 6,060 12.1 -44.6°
Reaches altitude 10° 01:42:12 10° 277° (W) 5,126 11.7 -44.5°
Enters shadow 01:47:07 25° 269° (W) 4,042 11.0 -44.4°
Maximum altitude 01:56:34 54° 207° (SSW) 2,778 - -44.0°
Drops below altitude 10° 02:08:52 10° 135° (SE) 4,431 - -43.5°
Sets 02:12:04 0° 130° (SE) 5,214 - -43.3°
